Flag for Venezuela Weather past 2 weeks in Caracas, Venezuela

Now
90 °F

Scattered clouds.


Feels Like: 105 °F
Forecast: 67 / 77 °F
Wind: 6 mph from Northeast

Location: Caracas / Maiquetia Aerop. Intl. Simon Bolivar

Current Time: May 22, 2015 at 3:32:07 PM

Latest Report: May 22, 2015 at 2:30 PM


Visibility: N/A

Pressure: 29.92 "Hg

Humidity: 71%

Dew point: 79 °F

Location of CaracasLocation

Historic Weather in Caracas — Graph

°F

Caracas temperature yesterday

Maximum temperature yesterday: 88 °F (at 10:30 AM)
Minimum temperature yesterday: 77 °F (at 3:30 AM)
Average temperature yesterday: 82 °F

Past Weeks' High & Low Weather Summary

 TemperatureHumidityPressure
High91 °F (May 19, 12:30 PM)94% (May 15, 8:30 PM)29.98 "Hg (May 15, 8:30 PM)
Low75 °F (May 9, 2:30 AM)48% (May 21, 5:30 PM)29.77 "Hg (May 20, 5:30 PM)
Average81 °F78%29.89 "Hg
* Reported May 7 2:30 PM — May 22 2:30 PM, Caracas, Weather by CustomWeather, © 2015

Note: Actual official high and low records may vary slightly from our data, if they occured in-between our weather recording intervals... More about our weather records

Advertising

Caracas weather history for previous 24 hours

 ConditionsComfort  
Time TempWeatherWind HumidityBarometerVisibility
2:30 PM
Fri, May 22
90 °FScattered clouds.6 mph67%29.92 "HgN/A
1:30 PM88 °FPartly sunny.5 mph75%29.95 "HgN/A
12:30 PM88 °FPartly sunny.6 mph66%29.98 "HgN/A
11:30 AM86 °FPartly sunny.5 mph75%29.98 "HgN/A
10:30 AM86 °FPartly sunny.5 mph79%29.98 "HgN/A
9:30 AM84 °FScattered clouds.3 mph74%29.98 "HgN/A
8:30 AM84 °FScattered clouds.5 mph79%29.95 "HgN/A
7:30 AM81 °FScattered clouds.No wind84%29.95 "HgN/A
6:30 AM77 °FScattered clouds.No wind74%29.92 "HgN/A
5:30 AM77 °FScattered clouds.No wind74%29.89 "HgN/A
4:30 AM77 °FPassing clouds.No wind74%29.89 "HgN/A
3:30 AM77 °FPassing clouds.No wind74%29.89 "HgN/A
2:30 AM79 °FPassing clouds.No wind74%29.89 "HgN/A
1:30 AM79 °FPassing clouds.No wind74%29.92 "HgN/A
12:30 AM79 °FPassing clouds.2 mph74%29.92 "HgN/A
11:30 PM
Thu, May 21
81 °FPassing clouds.No wind84%29.92 "HgN/A
10:30 PM81 °FPassing clouds.2 mph84%29.92 "HgN/A
9:30 PM79 °FPassing clouds.No wind89%29.89 "HgN/A
8:30 PM79 °FPassing clouds.6 mph89%29.89 "HgN/A
7:30 PM81 °FPassing clouds.6 mph84%29.86 "HgN/A
6:30 PM81 °FPassing clouds.5 mph89%29.86 "HgN/A
5:30 PM84 °FPartly sunny.5 mph48%29.83 "HgN/A
4:30 PM82 °FDrizzle. Partly sunny.5 mph89%29.83 "Hg6 mi
3:30 PM86 °FScattered clouds.5 mph70%29.86 "HgN/A
Weather by CustomWeather, © 2015

See weather overviewHow to use our weather pages